Home   Weather   Eidsvoll   Past weeks
Flag for Norway

Past Weather in Eidsvoll, Norway — Yesterday and Last 2 Weeks

Now
73 °F

Scattered clouds.


Feels Like: 77 °F
Forecast: 65 / 54 °F
Wind: 14 mph from Southwest

Location: Oslo Gardermoen Airport

Current Time: Aug 25, 2019 at 5:48:18 pm

Latest Report: Aug 25, 2019 at 4:50 pm


Visibility: N/A

Pressure: 30.18 "Hg

Humidity: 57%

Dew Point: 57 °F

Location of EidsvollLocation

Past Weather in Eidsvoll — Graph

°F

Eidsvoll Temperature Yesterday

Maximum temperature yesterday: 72 °F (at 3:20 pm)
Minimum temperature yesterday: 48 °F (at 6:20 am)
Average temperature yesterday: 61 °F

High & Low Weather Summary for the Past Weeks

 TemperatureHumidityPressure
High73 °F (Aug 25, 3:20 pm)100% (Aug 11, 2:20 am)30.27 "Hg (Aug 11, 2:20 am)
Low43 °F (Aug 15, 5:20 am)35% (Aug 23, 5:50 pm)29.47 "Hg (Aug 11, 6:20 am)
Average58 °F81%29.79 "Hg
* Reported Aug 10 4:20 pm — Aug 25 4:50 pm, Eidsvoll. Weather by CustomWeather, © 2019

Note: Actual official high and low records may vary slightly from our data, if they occured in-between our weather recording intervals... More about our weather records

Advertising

Eidsvoll Weather History for the Previous 24 Hours

Scroll right to see more
 ConditionsComfort  
Time TempWeatherWind HumidityBarometerVisibility
4:50 pm
Sun, Aug 25
73 °FScattered clouds.14 mph57%30.18 "HgN/A
4:20 pm73 °FScattered clouds.13 mph61%30.21 "HgN/A
3:50 pm73 °FScattered clouds.12 mph57%30.21 "HgN/A
3:20 pm73 °FScattered clouds.14 mph57%30.21 "HgN/A
2:50 pm72 °FScattered clouds.12 mph61%30.21 "HgN/A
2:20 pm72 °FScattered clouds.15 mph61%30.21 "HgN/A
1:50 pm72 °FScattered clouds.12 mph61%30.21 "HgN/A
1:20 pm72 °FScattered clouds.13 mph61%30.21 "HgN/A
12:50 pm70 °FScattered clouds.13 mph69%30.21 "HgN/A
12:20 pm70 °FPartly sunny.13 mph69%30.21 "HgN/A
11:50 am66 °FBroken clouds.12 mph78%30.21 "HgN/A
11:20 am64 °FBroken clouds.14 mph78%30.24 "HgN/A
10:50 am64 °FBroken clouds.14 mph83%30.24 "HgN/A
10:20 am64 °FBroken clouds.16 mph83%30.24 "HgN/A
9:50 am64 °FBroken clouds.14 mph78%30.24 "HgN/A
9:20 am63 °FBroken clouds.10 mph88%30.24 "HgN/A
8:50 am61 °FBroken clouds.10 mph94%30.24 "HgN/A
8:20 am61 °FBroken clouds.8 mph88%30.24 "HgN/A
7:50 am59 °FBroken clouds.6 mph94%30.24 "Hg4 mi
7:20 am59 °FMore clouds than sun.7 mph94%30.24 "Hg5 mi
6:50 am59 °FFog.8 mph94%30.24 "HgN/A
6:20 am59 °FFog.7 mph94%30.24 "Hg3 mi
5:50 am59 °FFog.8 mph94%30.24 "Hg3 mi
5:20 am59 °FFog.8 mph94%30.24 "Hg2 mi
4:50 am59 °FFog.7 mph94%30.24 "Hg2 mi
4:20 am57 °FFog.6 mph100%30.24 "Hg1 mi
2:50 am57 °FLow clouds.8 mph100%30.27 "Hg4 mi
2:20 am59 °FLow clouds.8 mph88%30.27 "Hg6 mi
1:50 am59 °FLow clouds.7 mph88%30.27 "HgN/A
1:20 am57 °FPassing clouds.8 mph94%30.27 "HgN/A
12:50 am57 °FPassing clouds.9 mph94%30.24 "HgN/A
12:20 am57 °FClear.7 mph88%30.24 "Hg10 mi
11:50 pm
Sat, Aug 24
57 °FClear.6 mph88%30.24 "Hg10 mi
11:20 pm59 °FClear.6 mph88%30.24 "Hg10 mi
10:50 pm61 °FClear.7 mph77%30.24 "Hg10 mi
10:20 pm61 °FClear.7 mph77%30.24 "Hg10 mi
9:50 pm63 °FClear.6 mph73%30.24 "Hg10 mi
9:20 pm64 °FClear.7 mph73%30.24 "Hg10 mi
8:50 pm64 °FPassing clouds.5 mph78%30.24 "HgN/A
8:20 pm64 °FSunny.7 mph73%30.24 "Hg10 mi
7:50 pm68 °FPassing clouds.7 mph69%30.24 "HgN/A
7:20 pm68 °FPassing clouds.7 mph69%30.24 "HgN/A
6:50 pm70 °FScattered clouds.10 mph64%30.24 "HgN/A
6:20 pm70 °FScattered clouds.8 mph60%30.24 "HgN/A
5:50 pm72 °FPartly sunny.8 mph57%30.24 "HgN/A
5:20 pm70 °FPartly sunny.8 mph57%30.24 "HgN/A
Weather by CustomWeather, © 2019

See weather overview